Hourly Weather Roundup
Issued by NWS Central Illinois

Home | Current Version | Previous Version | Text Only | Print | Product List | Glossary On
Versions: 1 2 3 4 5 6 7 8 9 10 11 12 13 14 15 16 17 18 19 20 21 22 23 24 25 26 27 28 29 30 31 32 33 34 35 36 37 38 39 40 41 42 43 44 45 46 47 48 49 50
000
NZUS43 KILX 260110
HWRILX

AREA WEATHER ROUNDUP
NATIONAL WEATHER SERVICE, LINCOLN IL
800 PM CDT WED MAY 25 2016


CITY           SKY/WX    TMP DP  RH WIND       PRES   REMARKS
BLOOMINGTON    CLOUDY    78  66  66 SW16G23   29.94R HX  80
CHAMPAIGN      CLOUDY    76  64  66 S13       29.96R
DANVILLE       CLOUDY    75  63  66 S14       29.94R
DECATUR        CLOUDY    77  66  68 S12       29.95R
EFFINGHAM      CLOUDY    73  68  83 S9        30.00R
FLORA          MOCLDY    74  67  79 S14       29.99R
GALESBURG      CLEAR     78  66  65 S10       29.88S HX  80
JACKSONVILLE   CLEAR     80  61  52 S12       29.92R HX  81
LACON          CLEAR     79  64  61 SW9       29.89R HX  80
LAWRENCEVILLE  CLOUDY    74  66  76 S14       30.01R
LITCHFIELD     PTCLDY    75  64  69 S15       29.96R
$$


CITY           SKY/WX    TMP DP  RH WIND       PRES   REMARKS
LINCOLN        CLOUDY    80  67  64 S7        29.92R HX  82
MACOMB         CLEAR     80  64  58 S9        29.91R HX  81
MATTOON        CLOUDY    73  64  73 S8        29.97R
MT CARMEL AP   CLOUDY    73  64  72 S12       30.00R
OLNEY-NOBLE AP PTCLDY    72  68  88 S10       30.00R
PARIS          CLOUDY    73  64  71 S9        29.99R
PEORIA         PTCLDY    79  64  60 S10       29.90R HX  81
PONTIAC        PTCLDY    82  65  55 SW13G18   29.93R HX  83
RANTOUL        CLOUDY    78  65  64 S14       29.96R HX  80
ROBINSON       PTCLDY    70  65  85 S7        30.01R
SPRINGFIELD    PTCLDY    78  67  68 S14       29.92R HX  80
TAYLORVILLE    PTCLDY    76  66  71 S14       29.95R
$$

...REGIONAL REPORTS...


CITY           SKY/WX    TMP DP  RH WIND       PRES   REMARKS
CHICAGO O`HARE TSTM      68  65  90 E13       29.92R
KANKAKEE       MOCLDY   N/A N/A N/A S12       29.93R
MOLINE         PTCLDY    81  59  47 SW6       29.86R HX  81
MOUNT STERLING CLEAR     77  64  64 S12       29.90R
MOUNT VERNON   MOCLDY    73  64  73 S10       30.01R
PITTSFIELD     CLEAR     79  66  64 S8        29.93R HX  81
QUINCY         CLEAR     78  63  59 S9        29.90R HX  80
ROCKFORD       CLOUDY    72  65  78 E5        29.89R
$$


CITY           SKY/WX    TMP DP  RH WIND       PRES   REMARKS
BURLINGTON     CLEAR     80  62  54 SW5       29.87R HX  81
CEDAR RAPIDS   CLEAR     78  61  55 SW8       29.85R HX  80
DES MOINES     CLOUDY    78  63  59 SE5       29.85S HX  80
KIRKSVILLE     CLOUDY    78  63  59 S6        29.90R HX  80
OTTUMWA        MOCLDY    78  63  59 S5        29.86R HX  80
ST LOUIS       PTCLDY    81  63  54 S10       29.95R HX  82
$$


CITY           SKY/WX    TMP DP  RH WIND       PRES   REMARKS
TERRE HAUTE    CLOUDY    74  62  66 S14       29.99R
EVANSVILLE     CLOUDY    71  63  75 S12       30.02S
INDIANAPOLIS   MOCLDY    75  62  64 S10       29.99R
LAFAYETTE      CLOUDY    77  60  55 S10G17    29.96R
MADISON        MOCLDY    77  63  61 S15       29.84R
MILWAUKEE      LGT RAIN  54  52  93 NE5       29.93R FOG
$$





USA.gov is the U.S. government's official web portal to all federal, state and local government web resources and services.